Regional Weather Roundup
Issued by NWS Goodland, KS

Home | Current Version | Previous Version | Graphics & Text | Print | Product List | Glossary On
Versions: 1 2 3 4 5 6 7 8 9 10 11 12 13 14 15 16 17 18 19 20 21 22 23 24 25 26 27 28 29 30 31 32 33 34 35 36 37 38 39 40 41 42 43 44 45 46 47 48 49 50
000
ASUS43 KGLD 092308
RWRGLD

GOODLAND FORECAST AREA HOURLY WEATHER ROUNDUP
NATIONAL WEATHER SERVICE GOODLAND KS
400 PM MST FRI DEC 09 2016

...OFFICIAL OBSERVATIONS...

CITY           SKY/WX    TMP DP  RH WIND       PRES   REMARKS
GOODLAND KS    CLEAR     33  23  66 S6        30.18S
HILL CITY KS   CLEAR     31  15  52 S7        30.32R
IMPERIAL NEB   PTCLDY    28  19  69 N7        30.23R
MCCOOK NEB     CLEAR     27  16  63 E8        30.27S
AKRON CO       MOCLDY    28  19  69 SE8       30.14R
BURLINGTON CO  CLEAR     35  18  49 SE9       30.16R
LIMON CO       CLOUDY    46  20  35 SE7       30.11R
$$

...UNOFFICIAL OBSERVATIONS...

CITY           SKY/WX    TMP DP  RH WIND       PRES   REMARKS
COLBY KS       CLEAR     34  27  75 SE5       30.24R
LENORA KS        N/A     30  32 100 MISG        N/A
NORTON KS      CLEAR     28  12  50 E5        30.30S
SHARON SPRINGS   N/A     37  25  63 CALM        N/A
TRENTON NEB      N/A     28  32 100 CALM        N/A
KIT CARSON CO    N/A     36  15  42 MISG        N/A
YUMA CO        FAIR      25  14  63 CALM      30.18R
$$




USA.gov is the U.S. government's official web portal to all federal, state and local government web resources and services.